| time (UTC) | temp C | wind direction | speed KPH | gust KPH | rain 1hr cm | rain 24hr cm | rain mn cm | humidity % | barometer mb |
| 20260507174004 | 11 | 199 | 11.3 | 14.5 | 0.00 | 0.03 | 0.00 | 79 | 1020.7 |
| 20260507173004 | 11 | 204 | 11.3 | 14.5 | 0.00 | 0.03 | 0.00 | 79 | 1020.7 |
| 20260507172004 | 11 | 214 | 12.9 | 14.5 | 0.00 | 0.03 | 0.00 | 75 | 1020.7 |
| 20260507171004 | 11 | 206 | 9.7 | 12.9 | 0.00 | 0.03 | 0.00 | 81 | 1020.8 |
| 20260507165004 | 11 | 221 | 8.0 | 14.5 | 0.00 | 0.03 | 0.00 | 81 | 1020.8 |
| 20260507164004 | 11 | 226 | 6.4 | 17.7 | 0.00 | 0.03 | 0.00 | 79 | 1021.0 |
| 20260507163004 | 11 | 219 | 11.3 | 14.5 | 0.00 | 0.03 | 0.00 | 76 | 1021.2 |
| 20260507161005 | 10 | 199 | 8.0 | 14.5 | 0.00 | 0.03 | 0.00 | 96 | 1021.3 |
| 20260507160005 | 10 | 199 | 9.7 | 12.9 | 0.00 | 0.03 | 0.00 | 97 | 1021.3 |
| 20260507154005 | 10 | 221 | 8.0 | 12.9 | 0.00 | 0.05 | 0.00 | 97 | 1021.2 |
| 20260507153005 | 10 | 214 | 8.0 | 12.9 | 0.00 | 0.05 | 0.00 | 95 | 1021.2 |
| 20260507150006 | 10 | 228 | 11.3 | 20.9 | 0.00 | 0.13 | 0.00 | 97 | 1021.3 |
| 20260507145005 | 10 | 211 | 12.9 | 17.7 | 0.00 | 0.15 | 0.00 | 96 | 1021.3 |
| 20260507144005 | 10 | 222 | 6.4 | 17.7 | 0.00 | 0.20 | 0.00 | 98 | 1021.5 |
| 20260507143005 | 10 | 213 | 6.4 | 22.5 | 0.00 | 0.23 | 0.00 | 95 | 1021.4 |
| 20260507141007 | 11 | 248 | 8.0 | 12.9 | 0.00 | 0.23 | 0.00 | 93 | 1021.3 |
| 20260507140006 | 11 | 239 | 8.0 | 11.3 | 0.00 | 0.23 | 0.00 | 95 | 1021.6 |
| 20260507135005 | 12 | 242 | 8.0 | 11.3 | 0.00 | 0.28 | 0.00 | 90 | 1021.8 |
| 20260507133005 | 12 | 269 | 4.8 | 11.3 | 0.00 | 0.33 | 0.00 | 90 | 1021.7 |
| 20260507132005 | 12 | 259 | 4.8 | 12.9 | 0.00 | 0.33 | 0.00 | 86 | 1021.9 |
| 20260507131005 | 12 | 261 | 6.4 | 17.7 | 0.00 | 0.33 | 0.00 | 82 | 1022.1 |
| 20260507130005 | 12 | 252 | 6.4 | 12.9 | 0.00 | 0.33 | 0.00 | 78 | 1021.8 |
| 20260507125006 | 13 | 235 | 6.4 | 11.3 | 0.00 | 0.36 | 0.00 | 78 | 1022.1 |
| 20260507124005 | 13 | 270 | 1.6 | 11.3 | 0.00 | 0.36 | 0.00 | 76 | 1022.2 |
| 20260507123005 | 13 | 231 | 3.2 | 12.9 | 0.00 | 0.36 | 0.00 | 85 | 1022.2 |
| 20260507122005 | 13 | 269 | 4.8 | 11.3 | 0.00 | 0.36 | 0.00 | 81 | 1022.2 |
| 20260507121005 | 12 | 269 | 6.4 | 12.9 | 0.00 | 0.36 | 0.00 | 79 | 1022.3 |
| 20260507115005 | 13 | 269 | 4.8 | 11.3 | 0.00 | 0.38 | 0.00 | 81 | 1022.3 |
| 20260507113005 | 13 | 244 | 6.4 | 11.3 | 0.00 | 0.48 | 0.00 | 82 | 1022.5 |
| 20260507112005 | 13 | 260 | 4.8 | 12.9 | 0.00 | 0.48 | 0.00 | 80 | 1022.6 |
| 20260507111005 | 13 | 265 | 3.2 | 11.3 | 0.00 | 0.48 | 0.00 | 83 | 1022.5 |
| 20260507105005 | 13 | 203 | 1.6 | 11.3 | 0.00 | 0.48 | 0.00 | 86 | 1022.7 |
| 20260507104005 | 13 | 231 | 4.8 | 14.5 | 0.00 | 0.48 | 0.00 | 82 | 1022.6 |
| 20260507102007 | 12 | 219 | 8.0 | 14.5 | 0.00 | 0.48 | 0.00 | 90 | 1022.8 |
| 20260507100005 | 11 | 253 | 4.8 | 12.9 | 0.00 | 0.48 | 0.00 | 91 | 1022.5 |
| 20260507095005 | 11 | 227 | 3.2 | 12.9 | 0.00 | 0.48 | 0.00 | 90 | 1022.6 |
| 20260507094005 | 12 | 224 | 6.4 | 14.5 | 0.00 | 0.48 | 0.00 | 85 | 1022.6 |
| 20260507092005 | 10 | 206 | 6.4 | 14.5 | 0.00 | 0.48 | 0.00 | 96 | 1022.7 |
| 20260507091005 | 11 | 206 | 6.4 | 14.5 | 0.00 | 0.48 | 0.00 | 95 | 1022.5 |
| 20260507090006 | 10 | 205 | 8.0 | 14.5 | 0.00 | 0.48 | 0.00 | 97 | 1022.7 |
| 20260507085005 | 10 | 203 | 9.7 | 14.5 | 0.00 | 0.48 | 0.00 | 97 | 1022.5 |
| 20260507083005 | 11 | 202 | 9.7 | 14.5 | 0.00 | 0.48 | 0.00 | 95 | 1022.5 |
| 20260507081005 | 11 | 211 | 6.4 | 12.9 | 0.00 | 0.48 | 0.00 | 94 | 1022.3 |
| 20260507080005 | 11 | 192 | 6.4 | 12.9 | 0.00 | 0.48 | 0.00 | 94 | 1022.3 |
| 20260507075005 | 11 | 210 | 3.2 | 12.9 | 0.00 | 0.48 | 0.00 | 94 | 1022.4 |
| 20260507074004 | 11 | 210 | 8.0 | 12.9 | 0.00 | 0.48 | 0.00 | 93 | 1022.3 |
| 20260507073005 | 10 | 210 | 4.8 | 12.9 | 0.00 | 0.48 | 0.00 | 96 | 1022.4 |
| 20260507072005 | 10 | 187 | 9.7 | 14.5 | 0.00 | 0.48 | 0.00 | 94 | 1022.5 |
| 20260507071005 | 10 | 185 | 8.0 | 12.9 | 0.00 | 0.48 | 0.00 | 96 | 1022.3 |
| 20260507070009 | 10 | 203 | 8.0 | 14.5 | 0.00 | 0.48 | 0.00 | 98 | 1022.2 |
| 20260507065005 | 10 | 190 | 11.3 | 17.7 | 0.00 | 0.48 | 0.00 | 95 | 1022.0 |
| 20260507064005 | 10 | 199 | 12.9 | 14.5 | 0.00 | 0.48 | 0.00 | 95 | 1021.7 |
| 20260507063005 | 10 | 195 | 12.9 | 14.5 | 0.00 | 0.48 | 0.00 | 94 | 1022.0 |
| 20260507062004 | 10 | 176 | 11.3 | 14.5 | 0.00 | 0.48 | 0.00 | 93 | 1021.9 |
| 20260507061004 | 10 | 191 | 11.3 | 14.5 | 0.00 | 0.48 | 0.00 | 93 | 1021.7 |
| 20260507055005 | 10 | 195 | 8.0 | 14.5 | 0.00 | 0.48 | 0.00 | 94 | 1021.9 |
| 20260507054005 | 10 | 200 | 12.9 | 14.5 | 0.00 | 0.48 | 0.00 | 93 | 1021.8 |
| 20260507053005 | 10 | 207 | 11.3 | 12.9 | 0.00 | 0.48 | 0.00 | 93 | 1021.6 |
| 20260507052005 | 10 | 190 | 12.9 | 14.5 | 0.00 | 0.48 | 0.00 | 94 | 1021.8 |
| 20260507051005 | 10 | 189 | 12.9 | 14.5 | 0.00 | 0.48 | 0.00 | 93 | 1021.6 |
| 20260507050006 | 10 | 188 | 12.9 | 14.5 | 0.00 | 0.48 | 0.00 | 94 | 1021.7 |
| 20260507045005 | 10 | 181 | 8.0 | 11.3 | 0.00 | 0.48 | 0.00 | 95 | 1021.9 |
| 20260507044004 | 10 | 166 | 8.0 | 14.5 | 0.00 | 0.48 | 0.00 | 96 | 1021.7 |
| 20260507043004 | 9 | 181 | 11.3 | 14.5 | 0.00 | 0.48 | 0.00 | 96 | 1021.6 |
| 20260507042005 | 9 | 187 | 12.9 | 17.7 | 0.00 | 0.48 | 0.00 | 96 | 1021.3 |
| 20260507041005 | 9 | 181 | 14.5 | 17.7 | 0.00 | 0.48 | 0.00 | 96 | 1021.2 |
| 20260507040005 | 9 | 186 | 12.9 | 17.7 | 0.00 | 0.48 | 0.00 | 96 | 1021.4 |
| 20260507035005 | 9 | 184 | 14.5 | 17.7 | 0.00 | 0.48 | 0.00 | 96 | 1021.3 |
| 20260507034005 | 9 | 182 | 12.9 | 17.7 | 0.00 | 0.48 | 0.00 | 96 | 1021.1 |
| 20260507032005 | 10 | 183 | 12.9 | 14.5 | 0.00 | 0.48 | 0.00 | 94 | 1021.3 |
| 20260507030004 | 10 | 195 | 11.3 | 14.5 | 0.00 | 0.48 | 0.00 | 93 | 1021.6 |
| 20260507025004 | 10 | 183 | 12.9 | 17.7 | 0.00 | 0.48 | 0.00 | 92 | 1021.4 |
| 20260507024005 | 10 | 183 | 12.9 | 17.7 | 0.00 | 0.48 | 0.00 | 91 | 1021.3 |
| 20260507022005 | 10 | 196 | 12.9 | 17.7 | 0.00 | 0.48 | 0.00 | 90 | 1021.3 |
| 20260507021005 | 10 | 188 | 11.3 | 17.7 | 0.00 | 0.48 | 0.00 | 89 | 1021.4 |
| 20260507020009 | 10 | 179 | 12.9 | 17.7 | 0.00 | 0.48 | 0.00 | 88 | 1021.5 |
| 20260507015005 | 10 | 151 | 12.9 | 14.5 | 0.00 | 0.48 | 0.00 | 89 | 1021.6 |
| 20260507014004 | 10 | 143 | 11.3 | 14.5 | 0.00 | 0.48 | 0.00 | 90 | 1021.6 |
| 20260507013004 | 10 | 167 | 9.7 | 12.9 | 0.00 | 0.48 | 0.00 | 92 | 1021.7 |
| 20260507012004 | 10 | 225 | 1.6 | 3.2 | 0.00 | 0.48 | 0.00 | 93 | 1021.7 |
| 20260507005005 | 9 | 127 | 1.6 | 11.3 | 0.00 | 0.48 | 0.00 | 94 | 1021.6 |
| 20260507004005 | 10 | 119 | 3.2 | 12.9 | 0.00 | 0.48 | 0.00 | 93 | 1021.6 |
| 20260507003005 | 10 | 80 | 3.2 | 27.4 | 0.00 | 0.48 | 0.00 | 94 | 1021.7 |
| 20260507002004 | 9 | 64 | 8.0 | 22.5 | 0.00 | 0.48 | 0.00 | 98 | 1021.8 |
| 20260507001004 | 9 | 22 | 16.1 | 20.9 | 0.00 | 0.48 | 0.00 | 99 | 1021.7 |
| 20260506235005 | 9 | 51 | 12.9 | 17.7 | 0.00 | 0.48 | 0.00 | 99 | 1022.0 |
| 20260506234004 | 9 | 47 | 11.3 | 12.9 | 0.00 | 0.48 | 0.00 | 99 | 1021.8 |
| 20260506233004 | 8 | 51 | 6.4 | 12.9 | 0.00 | 0.48 | 0.00 | 99 | 1022.0 |
| 20260506232004 | 9 | 0 | 0.0 | 6.4 | 0.00 | 0.48 | 0.00 | 99 | 1021.9 |
| 20260506231004 | 9 | 0 | 0.0 | 6.4 | 0.00 | 0.48 | 0.00 | 99 | 1021.8 |
| 20260506230004 | 10 | 229 | 3.2 | 6.4 | 0.00 | 0.48 | 0.00 | 95 | 1021.9 |
| 20260506225004 | 11 | 270 | 4.8 | 6.4 | 0.00 | 0.48 | 0.00 | 90 | 1021.6 |
| 20260506224004 | 11 | 147 | 3.2 | 9.7 | 0.00 | 0.48 | 0.00 | 78 | 1021.7 |
| 20260506223005 | 10 | 129 | 6.4 | 9.7 | 0.00 | 0.48 | 0.00 | 88 | 1021.8 |
| 20260506222005 | 10 | 328 | 3.2 | 6.4 | 0.00 | 0.48 | 0.00 | 97 | 1021.8 |
| 20260506221005 | 10 | 0 | 0.0 | 3.2 | 0.00 | 0.48 | 0.00 | 96 | 1021.9 |
| 20260506220009 | 10 | 155 | 3.2 | 6.4 | 0.00 | 0.48 | 0.00 | 95 | 1021.7 |
| 20260506215006 | 10 | 0 | 0.0 | 6.4 | 0.00 | 0.48 | 0.48 | 97 | 1021.8 |
| 20260506213004 | 10 | 79 | 6.4 | 24.1 | 0.00 | 0.51 | 0.48 | 99 | 1021.9 |
| 20260506212004 | 9 | 192 | 4.8 | 14.5 | 0.00 | 0.51 | 0.48 | 99 | 1021.6 |
| 20260506205004 | 9 | 134 | 1.6 | 12.9 | 0.00 | 0.51 | 0.48 | 99 | 1021.7 |
| 20260506204004 | 9 | 93 | 3.2 | 12.9 | 0.00 | 0.51 | 0.48 | 99 | 1021.9 |
| 20260506203005 | 9 | 48 | 6.4 | 9.7 | 0.00 | 0.51 | 0.48 | 99 | 1022.2 |
| 20260506202004 | 10 | 38 | 6.4 | 9.7 | 0.00 | 0.51 | 0.48 | 99 | 1022.1 |
| 20260506201004 | 10 | 352 | 4.8 | 6.4 | 0.00 | 0.53 | 0.48 | 99 | 1022.1 |
| 20260506200004 | 10 | 332 | 3.2 | 9.7 | 0.00 | 0.53 | 0.48 | 99 | 1022.0 |
| 20260506194004 | 10 | 349 | 4.8 | 6.4 | 0.00 | 0.53 | 0.48 | 99 | 1022.1 |
| 20260506193004 | 10 | 350 | 3.2 | 6.4 | 0.03 | 0.53 | 0.48 | 99 | 1022.1 |
| 20260506192004 | 10 | 338 | 3.2 | 6.4 | 0.03 | 0.53 | 0.48 | 99 | 1022.1 |
| 20260506191004 | 10 | 352 | 6.4 | 6.4 | 0.03 | 0.53 | 0.48 | 99 | 1022.0 |
| 20260506185004 | 10 | 23 | 6.4 | 11.3 | 0.03 | 0.53 | 0.48 | 99 | 1021.8 |
| 20260506184004 | 10 | 39 | 8.0 | 12.9 | 0.03 | 0.53 | 0.48 | 99 | 1021.8 |
| 20260506183004 | 10 | 36 | 6.4 | 17.7 | 0.00 | 0.51 | 0.46 | 99 | 1021.6 |
| 20260506182005 | 10 | 27 | 9.7 | 17.7 | 0.00 | 0.51 | 0.46 | 99 | 1021.4 |
| 20260506181004 | 10 | 30 | 12.9 | 17.7 | 0.00 | 0.51 | 0.46 | 99 | 1021.2 |
| 20260506180006 | 10 | 31 | 9.7 | 17.7 | 0.00 | 0.51 | 0.46 | 99 | 1021.4 |
| 20260506175004 | 10 | 15 | 8.0 | 12.9 | 0.00 | 0.51 | 0.46 | 99 | 1021.1 |